STARLINK-31949, 59891

Orbit data source: Space-Track

STARLINK-31949, 59891 is a payload satellite owned by SpaceX/Seattle (US) in LEO that was launched on Tue, 28 May 2024 UTC via an FALCON 9 launch vehicle from the Air Force Eastern Test Range (AFETR). Payload-class satellites include a variety of spacecraft equipped with specific instruments for various scientific and technological missions. These include communications satellites like Starlink; space stations such as the ISS; scientific satellites like the Hubble; Earth observation satellites from companies like Planet Labs, Umbra, and HawkEye 360; GPS; miniature CubeSats for education and research; and military/defense satellites.

Loading next visibility...
Identifier
59891, 2024-100G
Orbit
LEO
Country
Flag of USUS
Related business
Manufacturer
SpaceX/Seattle
Mission
Operational Commercial Communications
Bus & Motor
STARLINK V2M, Unknown motor
Mass
730 kg wet, ~700 kg dry
Launch date (UTC)
2024-05-28 (1 year ago)
Launch vehicle
FALCON 9
Launch site
Air Force Eastern Test Range (AFETR)
Object type
Payload
Rocket body
Debris
Shape & HBR
Box + 2 Pan, 17.7 m
Radar Cross Section
33.884 m², Large (>1 m²)

Expand to show TLE details & history
Last TLE update: 17 hours ago

TLE from 17 hours ago
0 STARLINK-31949
1 59891U 24100G   25310.86875326  .00001633  00000-0  68830-4 0  9997
2 59891  43.0047  98.9653 0001477 270.3506  89.7176 15.27591963 82279
Epoch: 2025-11-06T20:51Z
TLE epoch observation values (Epoch: 2025-11-06T20:51:00.281Z)
Latitude
-0.00006°
Longitude
99.89318°
Altitude
482.784 km
Speed
7.626 km/s
True Right ascension
06h 35m 51s
True Declination
0° 00' 00"
Sunlit
Object was in full shadow at epoch
Visualization orbit readout
Latitude
Unknown
Longitude
Unknown
Altitude
Unknown
Speed
Unknown
Apparent Right ascension
Unknown
Apparent Declination
Unknown
Sunlit
N/A
Visualization observer readout
Local Sidereal Time
10:08:02
Azimuth
Unknown
Elevation
Unknown
Doppler factor
Unknown
Orbital elements
Apogee altitude
485.971 km
Perigee altitude
483.944 km
Semi-major axis
6,863.095 km
Eccentricity
0.00015
Inclination
43.0047°
RAAN
98.9653°
Arg. of periapsis
270.3506°
True anomaly
89.73452°
Mean anomaly
89.7176°
Eccentric anomaly
89.72606°
Mean motion
3.81736 °/min
Orbital period
94.31 mins
BSTAR
0.00006883
Loading maneuver chart data...
Computing Atmospheric mass density...
Loading historical data...
Loading historical data...
Loading historical data...
Loading historical data...
Loading historical data...
Loading historical data...
Loading historical data...

Documentation

Showing up to 5 results
|